This is the latest recevied weather packets stored in our database for station/object XE3JAR-13. If no packets are shown the sender has not sent any weather packets the latest 10 day(s).
| Time | Temp. | Humidity | Pressure | Rain* | Wind** | Luminosity | Snow |
|---|---|---|---|---|---|---|---|
| 1778269732 | 42.22° C | 56% | 1012.2 hPa | - | - | - | - |
| 1778269432 | 41.11° C | 58% | 1012.5 hPa | - | - | - | - |
| 1778269125 | 42.22° C | 58% | 1012.5 hPa | - | - | - | - |
| 1778268823 | 41.11° C | 60% | 1012.5 hPa | - | - | - | - |
| 1778268517 | 38.89° C | 61% | 1012.5 hPa | - | - | - | - |
| 1778268223 | 41.11° C | 60% | 1012.5 hPa | - | - | - | - |
| 1778267909 | 40° C | 62% | 1012.5 hPa | - | - | - | - |
| 1778267612 | 40° C | 63% | 1012.5 hPa | - | - | - | - |
| 1778267313 | 40° C | 64% | 1012.5 hPa | - | - | - | - |
| 1778267002 | 40° C | 62% | 1012.9 hPa | - | - | - | - |
| 1778266701 | 38.89° C | 62% | 1013.2 hPa | - | - | - | - |
| 1778266390 | 38.89° C | 65% | 1013.2 hPa | - | - | - | - |
| 1778266087 | 38.89° C | 62% | 1013.2 hPa | - | - | - | - |
| 1778265792 | 38.89° C | 63% | 1013.2 hPa | - | - | - | - |
| 1778265482 | 40° C | 63% | 1013.2 hPa | - | - | - | - |
| 1778265182 | 40° C | 62% | 1013.2 hPa | - | - | - | - |
| 1778264876 | 41.11° C | 61% | 1013.2 hPa | - | - | - | - |
| 1778264575 | 41.11° C | 59% | 1013.2 hPa | - | - | - | - |
| 1778263841 | 42.78° C | 57% | 1013.6 hPa | - | - | - | - |
| 1778263530 | 42.78° C | 56% | 1013.6 hPa | - | - | - | - |
| 1778263237 | 42.78° C | 57% | 1013.6 hPa | - | - | - | - |
| 1778262919 | 42.78° C | 56% | 1013.6 hPa | - | - | - | - |
| 1778262614 | 42.78° C | 55% | 1013.9 hPa | - | - | - | - |
| 1778262307 | 42.78° C | 56% | 1013.9 hPa | - | - | - | - |
| 1778262000 | 42.78° C | 56% | 1014.2 hPa | - | - | - | - |
* Rain since midnight (hover to see other rain measurements)
** Current wind speed in m/s (hover to see current wind gust speed)